EHI
17 16 14 10 7 5 4 5 7 8 6 5 5 5 4 2 1 0 0 0 0 0 0 0 0 0 0 0 0 0 0 0 0 0 0 0 0 0 0 0 0 0 0
17 15 12 9 8 7 6 7 8 8 7 6 6 5 4 2 0 0 0 0 0 0 0 0 0 0 0 0 1 1 1 0 0 0 0 0 0 0 0 0 0 0 0
14 14 12 11 11 11 12 12 11 8 7 7 7 6 4 2 1 0 0 0 0 0 0 0 0 0 0 1 1 2 2 1 0 0 0 0 0 0 0 0 0 0 0
12 13 15 16 17 18 18 17 13 9 7 7 6 5 4 3 1 0 0 0 0 0 0 0 0 0 1 2 2 2 3 3 1 0 0 0 0 0 0 0 0 0 0
10 12 16 18 20 23 23 19 13 9 7 6 5 4 4 3 2 1 0 0 0 0 0 0 1 1 2 4 4 4 3 3 2 1 0 0 0 0 0 0 0 0 0
8 11 14 15 19 23 23 19 14 9 7 6 5 5 5 4 4 3 1 0 0 0 0 1 2 3 4 5 6 5 4 3 3 1 0 0 0 0 0 0 0 0 0
7 10 12 13 18 22 21 18 15 10 8 8 8 7 7 7 7 6 3 1 1 1 1 2 3 4 5 6 6 5 4 3 3 2 1 0 0 0 0 0 0 0 0
8 9 9 11 17 21 21 20 17 13 10 10 10 9 8 9 10 9 6 3 2 2 3 3 3 4 6 6 5 4 3 3 3 2 1 0 0 0 0 0 0 0 0
9 8 7 8 12 18 21 21 19 16 12 11 11 10 10 12 12 11 8 5 4 4 4 4 4 5 6 5 4 3 3 3 3 2 1 0 0 0 0 0 0 0 1
9 8 8 7 8 13 17 19 20 18 14 11 11 12 12 14 14 14 12 9 7 6 6 6 6 7 6 4 3 3 3 3 3 2 1 0 0 0 0 0 0 1 2
9 8 8 9 9 11 14 18 21 20 17 14 15 15 15 15 16 17 17 15 12 10 9 9 9 8 6 4 4 4 3 3 3 2 1 0 0 0 0 0 0 0 1
9 9 10 11 11 13 14 16 19 20 18 18 18 19 18 17 17 19 20 20 17 14 12 11 10 7 5 5 6 6 5 4 4 3 1 1 1 2 1 0 0 0 0
11 10 11 11 13 14 15 15 16 17 18 18 19 20 20 19 17 17 19 20 18 15 13 12 10 8 6 7 8 7 6 6 5 4 3 2 3 3 2 1 0 0 0
15 14 12 11 13 14 16 15 14 16 18 19 20 22 23 20 17 15 16 17 15 13 11 10 9 8 7 7 7 7 7 6 6 4 3 3 3 2 2 1 0 0 0
20 17 13 12 13 16 17 15 13 14 17 19 21 23 23 20 16 14 14 14 13 11 9 8 9 8 7 7 6 6 6 6 5 3 2 2 1 1 1 0 0 0 0
23 20 15 13 15 19 21 19 15 13 15 17 19 19 19 17 14 13 12 12 11 10 7 7 8 8 6 6 6 6 5 5 3 1 1 1 0 0 0 0 0 0 0
24 23 20 16 17 22 25 24 20 17 17 16 15 15 14 13 12 12 12 12 11 9 7 6 6 6 5 4 4 3 3 2 1 0 0 0 0 0 0 0 0 0 0
27 27 26 22 21 24 27 27 26 24 22 19 16 14 12 10 10 11 13 13 11 10 8 6 6 4 3 3 3 1 1 0 0 0 0 0 0 0 0 0 0 0 0
31 32 31 27 26 28 29 30 31 29 26 23 19 15 11 9 7 9 11 12 13 11 9 7 5 4 3 3 2 1 0 0 0 0 0 0 0 0 0 0 0 0 0
35 35 34 30 28 29 30 31 31 28 25 22 19 14 11 8 7 7 8 11 13 12 9 7 5 4 3 3 2 1 0 0 0 0 0 0 0 0 0 0 0 0 0
37 38 37 34 29 27 28 29 27 23 21 19 16 13 10 8 6 5 6 8 10 10 9 7 5 4 3 2 1 0 0 0 0 0 0 0 0 0 0 0 0 0 0
40 39 38 35 29 26 26 25 22 19 18 17 14 11 9 6 4 3 3 4 5 6 6 6 5 5 3 2 0 0 0 0 0 0 0 0 0 0 0 0 0 0 0
38 37 36 32 27 24 24 23 19 16 14 13 11 8 6 4 2 1 1 2 2 2 2 3 4 4 3 2 1 1 1 0 0 0 0 0 0 0 0 0 0 0 0
36 36 34 30 24 21 19 17 15 13 11 8 7 5 4 3 2 1 1 1 1 0 0 2 3 3 3 3 3 2 2 1 1 0 0 0 0 0 0 0 0 0 0
33 33 31 27 23 19 15 11 10 10 8 5 4 2 2 2 1 0 0 0 0 0 0 1 2 2 2 2 2 2 2 2 2 1 0 0 0 0 0 0 0 0 0
28 29 27 23 21 18 14 10 8 8 6 4 3 2 1 1 1 0 0 0 0 0 0 1 1 1 1 1 1 1 2 3 2 1 0 0 0 0 0 0 0 0 0
Wind_Speed
4 4 4 4 4 3 3 3 2 2 2 2 1 1 0 0 0 1 1 1 1 2 2 1 1 1 1 1 2 1 1 1 1 1 1 2 1 0 1 1 1 2 3
4 5 5 4 4 4 4 3 3 3 2 2 2 1 1 1 1 1 0 1 1 1 1 1 1 1 1 1 2 2 1 1 1 2 1 1 2 2 1 0 1 1 1
8 7 6 6 5 5 4 4 3 3 3 2 2 2 2 1 1 1 1 0 1 1 1 1 1 1 2 2 2 3 3 2 1 1 2 2 1 1 2 1 1 1 1
8 7 7 7 6 6 4 4 3 3 2 3 3 3 2 1 1 1 1 1 0 0 1 1 1 1 2 2 3 3 2 3 2 1 1 2 3 2 1 1 1 1 1
9 9 9 8 7 6 5 4 3 3 2 3 3 3 2 1 0 0 1 1 1 1 0 0 1 1 1 2 2 2 2 2 2 2 2 1 1 1 2 1 1 1 1
9 8 7 6 6 5 5 4 4 3 3 4 3 3 3 2 1 0 0 1 1 1 1 0 0 1 1 1 2 2 2 2 2 2 2 2 2 3 3 2 1 0 1
8 8 8 8 7 7 6 5 5 4 3 4 3 3 3 3 2 1 1 0 1 1 1 0 0 0 0 1 1 1 1 2 2 2 2 2 2 2 3 2 2 1 0
7 8 9 9 8 8 7 6 6 5 4 4 3 3 3 2 1 1 1 1 1 1 1 0 0 0 0 0 0 0 0 0 1 1 1 1 1 2 2 3 3 1 0
8 8 8 8 8 8 9 8 7 5 5 4 3 3 3 2 2 1 1 1 1 1 0 0 1 1 1 1 1 1 1 1 0 1 1 1 0 1 1 2 3 3 2
6 6 6 7 7 7 7 7 7 6 5 4 4 3 3 2 2 1 1 1 0 0 1 1 1 1 1 1 2 2 1 2 1 1 2 1 0 0 0 1 1 1 2
7 7 6 6 6 6 6 7 6 5 5 4 4 3 2 2 2 2 1 1 1 1 1 1 1 2 2 2 2 2 2 2 2 2 2 2 1 1 1 1 1 1 2
6 5 6 6 6 6 6 6 6 6 5 5 4 4 3 3 2 2 1 1 1 1 2 2 2 2 2 2 2 2 2 2 2 2 2 2 2 2 1 1 2 2 2
5 5 5 6 6 6 5 5 5 5 5 5 5 4 3 3 3 2 1 1 2 2 2 2 2 2 2 2 2 2 3 3 2 2 2 2 2 2 2 2 2 2 2
6 6 6 6 6 6 6 6 5 5 5 5 5 4 3 3 3 2 2 2 2 3 2 2 2 2 2 2 2 3 3 3 2 2 2 2 2 2 2 2 3 3 4
6 7 7 6 6 6 6 6 5 5 5 5 5 4 3 3 3 3 3 2 3 3 2 3 3 2 2 2 2 3 3 3 3 3 3 3 4 5 3 3 3 4 3
8 7 7 7 7 7 7 6 5 5 5 5 4 4 4 4 4 3 3 3 3 3 3 3 2 2 2 3 4 4 3 3 3 3 3 4 5 6 7 7 7 6 4
9 9 8 8 7 7 7 7 6 6 6 5 5 4 5 4 4 4 4 3 2 2 3 2 3 3 3 4 5 6 4 3 3 3 3 3 4 5 5 7 8 7 6
8 8 7 7 5 5 6 7 7 6 6 5 5 5 5 5 4 4 4 3 2 2 2 2 2 3 3 4 5 6 5 4 4 3 3 4 3 3 4 5 5 5 4
7 7 7 7 7 7 8 8 7 6 6 6 5 4 5 4 4 4 4 3 3 2 2 2 3 2 2 4 5 5 4 4 4 3 3 3 3 4 5 5 5 4 4
4 6 7 7 7 8 9 9 7 6 6 5 5 4 4 4 4 4 3 3 3 3 3 3 2 2 2 3 4 4 3 4 3 3 3 4 3 4 4 4 4 3 2
5 7 8 7 7 8 9 8 7 6 5 4 5 5 4 4 4 4 3 4 4 4 3 3 2 2 2 3 4 4 3 3 3 2 1 1 3 4 3 3 2 2 2
6 7 7 6 5 7 8 7 6 5 6 6 5 5 4 4 4 4 4 4 4 4 3 2 2 1 1 2 3 4 4 3 3 2 1 1 2 3 3 2 3 4 3
6 6 8 7 5 5 7 7 6 6 6 6 5 4 4 3 4 5 5 4 4 3 3 2 1 1 0 1 2 3 4 4 2 1 2 2 3 3 2 2 3 3 2
5 6 8 7 5 4 5 5 6 6 7 6 5 4 4 3 3 3 3 3 3 3 3 2 2 1 1 1 1 1 1 2 2 1 2 3 3 3 2 2 2 1 1
4 6 7 7 6 5 5 5 5 6 7 6 5 4 3 3 3 2 2 2 2 3 3 3 3 3 2 2 3 3 2 2 2 2 2 2 1 1 1 1 1 1 1
4 4 5 6 6 6 5 4 5 6 7 5 4 3 3 3 3 3 2 2 1 1 2 2 3 2 2 2 4 4 4 4 5 4 2 1 1 2 2 1 1 1 1
Wind_Direction
196 167 168 159 154 160 158 167 166 162 139 122 130 134 183 243 283 251 233 219 200 182 168 175 183 170 181 195 173 144 132 111 119 93 28 358 354 336 265 249 229 223 224
180 173 169 163 173 181 179 178 181 171 167 157 148 153 144 171 216 282 299 215 205 198 183 177 199 199 182 185 178 163 161 180 145 134 109 357 352 7 3 336 240 240 214
191 185 180 180 178 188 193 189 183 174 174 158 118 88 67 39 27 6 329 277 201 203 200 196 193 199 190 204 206 185 178 187 207 176 156 160 226 315 353 9 13 21 56
184 181 182 185 189 192 186 180 172 168 167 152 142 141 145 174 242 257 274 319 46 254 231 212 199 194 190 206 219 199 191 179 199 203 198 182 168 172 306 349 14 35 38
185 182 186 189 189 180 174 173 165 164 158 151 153 147 153 192 238 342 360 6 6 359 332 233 200 200 197 209 221 211 203 194 194 190 175 164 153 177 181 246 321 17 19
186 183 180 172 173 169 166 164 162 167 157 153 156 161 170 184 175 257 13 349 338 336 340 37 171 192 201 219 228 220 213 210 204 197 186 177 179 186 183 202 217 280 350
178 177 175 177 178 175 175 169 166 175 167 160 169 177 182 179 187 208 220 247 302 305 320 326 160 176 231 226 226 211 226 216 209 206 206 200 202 178 168 170 183 205 323
179 183 186 184 183 181 176 172 175 181 173 170 180 181 175 177 200 207 207 225 252 271 285 165 159 119 84 83 79 70 299 145 206 199 187 183 198 177 174 171 164 167 159
184 185 185 184 182 181 180 179 178 181 180 177 169 169 172 177 192 196 202 239 272 277 16 126 100 63 62 73 100 73 48 76 120 130 125 132 212 190 197 183 179 171 181
188 185 182 182 180 181 175 170 173 180 180 174 175 175 176 182 184 169 179 198 272 57 86 67 71 74 70 77 90 83 58 71 47 71 89 76 38 83 127 176 199 189 167
190 185 181 176 171 168 168 169 172 171 170 174 167 162 169 171 166 171 197 195 140 102 116 110 93 86 79 80 93 87 81 79 55 48 67 46 38 58 59 96 108 110 125
180 173 167 161 165 172 170 170 172 175 177 170 162 169 172 163 160 168 192 170 131 115 118 113 99 90 81 79 95 98 89 91 80 66 68 44 53 54 53 90 106 110 117
163 151 152 161 169 172 168 171 170 171 167 160 159 162 166 163 163 167 164 132 120 107 101 104 101 93 90 92 94 104 102 97 89 79 77 61 71 61 59 81 91 98 104
162 159 165 169 168 165 164 168 167 159 156 155 154 158 164 162 155 141 127 120 115 108 106 102 103 101 96 95 102 104 104 96 81 70 70 71 82 87 86 85 90 102 104
171 175 175 174 168 161 159 164 163 158 156 154 158 161 151 139 128 118 112 105 102 103 104 104 97 98 101 106 119 117 110 103 88 67 57 66 77 82 86 96 104 110 112
185 183 175 170 172 168 167 163 162 154 146 148 153 141 134 134 129 125 114 102 94 91 86 88 93 86 83 93 107 114 106 99 92 77 61 67 66 76 77 84 91 101 118
185 182 180 179 178 174 167 161 153 142 142 146 144 143 142 141 140 137 125 122 118 106 95 92 93 87 72 88 104 106 106 96 84 81 76 74 69 73 80 76 75 74 79
182 182 176 176 173 159 146 138 137 140 141 139 139 146 145 145 142 137 143 148 139 134 127 111 102 94 73 88 104 108 99 91 81 79 88 92 79 78 90 88 76 65 58
180 174 166 161 153 148 143 137 138 141 144 147 151 156 145 144 149 150 152 149 140 131 124 116 110 102 74 86 103 110 99 89 76 67 74 88 85 80 95 95 87 70 52
146 144 139 137 146 147 140 139 147 152 160 163 159 147 137 152 163 161 152 137 132 135 124 111 107 107 89 95 111 115 110 101 87 67 58 66 84 88 104 110 108 93 59
134 136 136 142 150 145 143 148 152 165 160 143 137 134 141 149 150 144 138 134 126 116 111 110 93 87 86 103 118 127 123 129 117 99 72 48 76 85 102 119 125 144 126
131 133 131 130 136 144 147 150 161 157 137 135 136 138 140 138 138 138 134 130 127 120 110 110 104 83 79 110 136 137 138 140 134 141 148 123 101 94 99 113 116 114 104
138 133 131 129 131 141 148 156 158 143 138 135 139 135 130 125 134 143 143 138 137 138 144 152 158 167 98 71 119 138 143 147 143 159 157 137 114 101 92 97 111 113 111
137 132 128 130 133 134 139 144 140 137 135 140 145 142 139 131 125 128 143 151 159 162 165 174 185 190 174 178 153 141 144 132 128 118 104 101 93 87 83 81 89 108 138
132 136 140 145 143 140 135 133 138 141 141 145 149 145 145 145 139 135 142 171 192 193 186 193 185 181 204 218 188 173 179 184 172 132 99 88 93 92 67 53 50 67 105
133 137 142 143 142 138 135 132 141 150 149 151 155 157 156 152 150 145 116 69 109 130 166 181 181 205 217 196 182 191 192 181 159 137 143 167 178 190 198 199 198 182 190